RH
29 27 27 26 25 25 24 23 23 23 24 25 25 26 27 28 29 29 30 29 29 29 30 31 32 34 35 36 36 37 37 38 40 41 43 43 42 41 38 36 35 35
16 15 15 15 14 14 14 13 13 13 13 13 14 14 14 15 15 16 17 17 18 18 18 19 20 21 23 26 28 31 33 35 36 37 38 39 40 40 40 38 37 35
14 14 13 13 13 13 13 13 13 12 12 12 12 12 12 12 12 12 12 12 13 13 13 13 14 14 14 15 16 19 21 25 28 31 33 35 36 36 37 37 36 36
13 13 13 12 12 12 12 12 12 12 12 12 12 12 12 12 12 12 12 12 12 12 12 12 13 13 13 12 13 13 13 14 16 19 22 25 29 31 33 34 34 34
11 11 11 11 10 10 10 10 10 10 10 10 10 11 11 11 12 12 12 12 12 12 12 12 12 12 12 12 12 12 12 13 12 12 13 14 17 20 22 25 28 30
9 9 9 10 9 9 9 9 9 9 9 9 9 9 9 9 10 10 10 11 11 11 11 11 11 11 11 11 11 11 11 12 12 11 12 12 12 13 13 15 17 19
8 8 8 8 8 8 8 8 8 8 8 8 8 8 8 8 8 8 8 9 9 9 10 10 10 10 10 10 10 11 11 10 11 11 11 11 11 11 11 11 11 12
8 8 8 7 7 7 7 7 7 7 7 7 7 7 7 7 7 7 7 7 7 8 8 8 9 9 9 9 9 10 10 10 10 10 10 10 10 10 10 10 10 11
7 7 7 7 6 6 6 6 6 6 6 6 6 6 6 6 6 6 6 6 7 7 7 7 7 7 7 8 8 8 9 9 9 9 9 9 10 10 10 9 9 10
6 6 6 6 6 5 5 5 5 5 5 5 5 5 5 5 5 6 5 6 6 6 6 6 6 6 6 6 7 7 7 7 8 8 8 8 9 9 9 9 9 9
5 5 5 5 5 5 5 5 4 5 4 4 5 4 5 5 5 5 5 5 5 5 5 5 5 5 6 6 6 6 6 6 6 7 7 7 7 8 8 8 8 8
5 5 5 5 5 5 5 4 4 5 4 4 4 4 4 4 4 4 4 4 4 4 5 5 5 5 5 5 5 5 5 5 5 6 6 6 6 6 7 7 7 8
5 5 5 5 5 5 5 5 5 5 5 4 4 4 4 4 4 4 4 4 4 4 4 4 4 4 4 4 5 5 5 5 5 5 5 5 5 5 6 6 6 6
5 5 5 5 5 5 5 5 5 5 4 5 4 4 4 4 4 4 4 4 4 4 4 4 4 4 4 4 4 4 4 4 4 4 4 5 5 5 5 5 5 5
5 4 4 4 4 4 4 4 4 4 4 4 3 3 4 3 4 4 4 4 4 4 4 4 4 4 4 4 4 4 4 3 4 4 4 4 4 5 5 5 5 5
4 4 4 4 3 3 3 3 3 3 3 3 3 3 3 3 3 3 3 3 3 3 3 3 3 3 3 3 3 3 3 3 4 4 3 4 4 4 4 4 4 4
4 4 3 3 3 3 3 3 3 3 3 3 3 3 3 3 3 3 3 3 3 3 3 3 3 3 3 3 3 3 3 3 3 3 3 4 4 4 4 4 4 4
3 4 3 3 3 3 3 3 3 3 3 3 3 3 3 3 3 3 3 3 3 3 3 3 3 3 2 2 2 2 2 2 2 3 3 3 3 3 3 3 4 4
4 4 4 4 3 3 3 3 3 3 3 3 3 3 3 3 3 3 3 3 3 3 3 3 3 2 2 2 2 2 2 2 2 2 3 3 3 3 3 3 3 3
4 4 4 4 4 4 3 3 3 3 3 3 3 3 3 3 3 3 3 3 3 3 3 3 2 2 2 2 2 2 2 2 3 3 3 3 3 3 3 3 3 3
4 4 4 4 4 4 3 3 3 3 3 3 3 3 3 3 3 3 3 3 2 2 2 2 2 2 2 2 2 2 2 2 2 2 3 3 3 3 3 3 2 2
4 4 4 4 4 4 4 3 3 3 3 3 3 3 3 3 3 3 3 3 2 2 2 2 2 2 2 3 2 2 2 2 2 2 2 2 2 3 3 3 3 3
4 4 4 4 4 4 4 3 4 3 3 3 3 3 3 3 3 3 3 2 2 2 2 2 2 2 2 3 2 2 2 2 2 2 2 2 2 2 2 2 2 3
4 3 4 3 3 4 3 3 3 3 3 3 3 3 3 3 3 3 2 2 2 2 2 2 3 3 3 3 2 2 2 2 2 2 2 2 2 2 2 2 2 2
3 3 3 3 3 3 3 3 3 3 3 3 3 3 3 3 3 2 2 2 2 2 2 3 3 3 3 3 2 2 2 2 2 2 2 3 2 2 2 2 2 2
3 3 3 3 3 3 3 3 3 3 3 3 3 3 3 3 3 2 2 2 2 2 2 2 3 3 2 2 2 2 2 2 2 3 2 3 2 2 2 2 2 2
Wind_Speed
129 128 128 128 128 127 127 127 126 126 126 125 125 125 125 126 126 126 125 125 124 123 122 122 122 122 122 122 122 122 122 122 122 122 123 122 122 122 122 122 122 121
127 127 126 126 126 126 125 125 124 124 123 123 123 122 122 122 123 123 123 123 123 123 122 122 121 121 121 121 122 123 123 124 125 126 126 126 126 126 126 126 125 125
126 126 126 125 125 125 125 124 124 123 123 122 122 121 121 121 120 120 121 121 121 121 121 121 121 121 121 121 121 121 122 123 125 126 127 128 129 130 130 130 129 129
124 124 124 123 123 123 122 122 122 121 121 121 120 120 120 120 120 119 119 119 119 119 120 120 120 120 120 120 120 120 121 122 123 124 126 127 129 131 132 132 132 132
120 120 119 119 119 119 118 118 118 117 117 117 117 117 117 117 117 117 117 118 118 118 118 119 119 119 119 119 119 120 120 121 121 122 123 124 126 128 130 131 132 133
114 114 114 114 114 114 113 113 113 113 113 112 112 112 112 113 113 113 113 114 115 116 116 117 118 118 118 118 118 119 119 120 121 121 122 123 124 125 127 129 130 131
110 110 110 110 110 110 109 109 109 109 109 108 108 108 109 109 109 109 109 110 111 112 113 114 115 116 116 117 117 117 118 118 119 120 120 121 122 124 125 126 127 128
109 109 108 108 108 108 107 106 106 106 106 105 105 105 105 105 105 106 106 106 107 108 109 110 112 113 114 115 116 116 117 117 118 118 119 119 120 121 123 124 125 126
109 108 108 108 107 107 106 106 105 104 104 104 104 104 103 103 103 103 103 104 104 105 106 107 108 109 110 112 113 114 115 116 117 117 117 118 119 120 121 122 123 123
109 108 107 107 106 106 105 104 103 103 102 102 102 102 102 102 102 102 102 102 103 103 104 105 105 106 107 109 110 111 112 113 114 115 116 117 117 118 119 120 120 121
108 107 106 106 105 104 104 103 102 101 101 101 100 100 100 100 100 100 100 101 101 102 102 103 104 105 105 106 107 108 109 110 111 112 113 114 115 116 117 118 119 119
105 105 105 104 104 103 102 101 101 100 99 99 99 98 98 98 98 98 98 99 99 100 101 101 102 103 104 105 105 106 106 107 108 109 110 111 111 113 114 115 116 117
102 102 102 102 101 101 100 99 99 98 98 97 97 96 95 95 95 95 96 96 97 97 98 99 100 101 102 103 103 104 104 104 105 106 106 107 108 110 111 112 113 115
99 99 99 99 98 98 97 97 96 96 95 95 94 94 93 93 92 93 93 93 94 94 94 95 96 97 99 99 100 100 101 101 102 102 103 104 105 107 108 110 111 112
95 95 95 95 95 94 94 93 93 93 92 92 92 91 91 90 90 90 91 91 91 91 92 92 93 94 95 95 95 96 96 97 97 98 99 100 101 103 105 107 109 110
91 92 92 92 91 91 90 90 90 90 89 89 89 88 88 88 88 88 88 88 88 89 90 90 91 92 92 92 92 92 92 92 92 93 94 95 96 98 100 103 105 107
89 89 89 89 88 88 87 87 87 87 86 86 85 85 85 85 85 85 85 86 85 85 86 87 88 89 90 89 90 90 89 89 89 90 91 92 92 94 96 98 101 103
85 85 85 85 85 84 84 84 84 84 83 83 83 83 83 84 84 84 84 84 83 82 82 84 85 86 86 85 85 86 86 85 85 86 87 89 90 91 93 95 97 99
81 81 82 82 82 81 81 81 81 80 80 79 79 80 81 81 82 82 82 82 81 80 80 80 81 82 81 81 80 81 81 82 81 81 82 84 86 88 90 92 94 96
79 79 79 79 79 79 79 79 78 77 77 76 76 76 77 78 78 78 79 79 78 77 76 77 78 78 77 76 76 76 77 78 77 76 77 78 80 83 86 88 91 92
77 77 77 77 77 77 77 76 76 75 75 74 74 75 75 75 76 76 76 76 75 73 72 73 74 74 73 73 73 73 74 74 73 72 72 73 76 79 82 83 85 86
74 74 74 74 74 74 74 74 73 73 73 72 72 73 74 74 74 74 74 73 73 71 69 69 70 70 69 70 70 70 70 69 69 69 69 70 72 75 76 78 79 81
71 71 71 71 72 72 72 71 71 71 71 70 70 71 72 72 72 72 72 71 70 69 67 66 67 68 68 68 68 68 67 66 66 67 67 68 69 71 73 74 75 77
69 69 69 69 69 69 68 67 67 67 68 67 67 68 69 70 69 69 70 68 66 65 64 63 65 67 67 67 66 66 65 64 64 64 65 66 67 68 70 71 71 72
67 67 67 66 66 66 65 64 63 64 64 64 64 65 66 66 66 66 67 66 63 61 60 60 62 65 66 65 65 65 64 63 62 62 64 65 65 66 67 67 67 67
66 65 65 64 63 63 63 62 61 61 61 62 62 63 62 62 62 63 63 63 60 58 57 58 60 63 64 63 63 63 61 60 60 60 62 63 64 64 64 64 64 65
Wind_Direction
279 279 278 278 278 277 277 276 276 275 275 274 274 273 273 273 272 272 272 271 270 269 268 267 266 264 263 262 261 260 259 258 257 257 256 256 255 254 254 253 252 250
280 279 279 279 278 278 278 277 277 276 275 275 274 273 273 272 272 271 271 271 270 270 269 268 267 265 264 263 261 260 259 258 257 257 256 255 255 254 254 253 253 252
280 280 280 280 279 279 279 278 278 277 277 276 275 275 274 273 272 272 271 270 270 269 269 268 267 266 265 264 263 261 260 259 258 257 256 255 255 254 254 253 253 252
281 281 280 280 280 279 279 278 278 277 277 276 276 275 274 274 273 272 272 271 270 269 269 268 267 266 265 264 263 262 261 260 259 258 257 256 255 255 254 253 253 252
281 281 280 280 279 279 279 278 277 277 276 276 275 274 273 273 272 271 271 270 270 269 269 268 267 266 265 264 263 262 262 261 260 258 258 257 256 255 255 254 253 253
281 281 280 280 279 279 278 278 277 277 276 275 275 274 273 272 271 270 270 269 268 268 268 267 267 266 265 265 264 263 262 261 260 259 258 257 256 256 255 255 254 253
282 282 281 281 280 279 278 278 277 276 276 275 274 273 273 272 271 270 269 268 267 267 266 266 265 265 265 264 264 263 262 261 260 259 258 257 256 256 255 254 254 254
283 283 282 282 281 280 280 279 278 277 276 275 274 273 272 271 271 270 269 268 267 266 266 265 264 264 263 263 263 262 262 261 261 260 259 258 257 257 256 255 254 253
285 284 283 283 282 281 281 280 279 278 277 276 275 274 273 272 271 270 269 268 267 266 265 265 264 263 262 262 261 261 261 260 260 260 259 259 258 258 257 256 255 254
286 285 284 284 283 282 281 281 280 279 278 277 276 275 274 273 272 271 270 269 268 267 266 265 264 263 262 261 261 260 260 259 259 259 258 258 258 258 257 257 257 256
286 286 285 285 284 283 283 282 281 280 279 278 277 276 275 274 273 272 271 270 269 268 267 266 265 264 262 262 261 260 259 259 259 258 258 258 257 257 257 257 257 256
286 286 286 285 284 284 283 283 282 281 280 279 278 277 276 275 274 273 272 271 270 269 268 267 266 265 264 263 262 261 260 259 258 258 257 257 257 257 256 256 256 256
287 286 286 285 285 284 284 283 282 281 281 280 279 278 276 276 275 273 272 271 270 269 268 267 266 265 265 264 263 262 261 260 259 258 257 257 257 256 256 256 255 255
287 287 286 286 285 285 284 283 283 282 281 280 279 278 277 276 275 274 273 272 271 270 269 268 267 266 265 264 263 262 261 261 260 259 258 258 257 257 256 256 255 255
288 288 287 286 286 285 284 284 283 282 281 281 280 279 278 277 276 275 274 273 272 271 270 269 268 267 265 264 263 262 262 261 260 259 259 258 257 257 256 256 255 254
289 288 288 287 286 286 285 284 284 283 282 281 281 280 279 278 277 275 274 273 272 271 270 269 268 267 266 265 264 263 262 261 261 260 259 258 257 256 256 255 255 254
291 290 289 289 288 287 286 286 285 284 284 283 282 281 280 279 278 276 275 274 272 271 270 270 268 267 266 265 265 264 263 262 261 261 260 259 258 257 256 255 255 254
294 293 292 292 291 290 289 287 286 285 285 284 283 282 281 280 279 278 276 275 274 273 272 271 270 268 267 266 265 265 264 263 262 261 260 260 259 258 257 256 255 255
297 296 295 294 293 292 291 290 289 288 287 286 285 284 282 281 280 279 277 276 275 274 273 272 271 270 269 268 267 266 265 263 262 260 259 259 259 258 257 257 256 255
298 297 296 295 295 294 293 292 291 291 290 289 288 286 285 283 282 281 279 278 277 276 275 274 273 272 271 270 269 267 266 264 263 261 260 259 258 258 257 256 256 256
298 298 297 296 295 295 294 293 293 292 292 291 290 288 287 285 284 283 282 281 280 278 277 276 275 274 273 272 271 269 267 266 265 263 261 259 258 257 256 256 256 255
299 298 297 297 296 295 295 294 294 293 292 291 290 289 288 286 285 284 283 283 282 281 280 279 278 277 276 274 273 271 270 268 267 265 262 260 258 257 256 256 255 255
300 299 298 298 297 296 296 295 295 294 293 292 290 289 288 287 286 285 284 283 283 282 282 281 280 279 277 276 274 272 271 269 267 265 263 261 260 258 257 256 255 254
301 300 300 299 298 297 297 296 295 294 293 292 290 289 288 287 286 285 284 283 283 283 283 282 281 279 277 276 274 272 270 269 268 266 265 263 262 260 259 258 257 256
303 302 302 301 300 300 299 298 297 295 294 293 291 289 288 287 287 286 285 284 284 283 283 282 280 278 276 275 274 272 271 270 269 268 267 265 264 262 261 259 259 258
305 305 305 304 303 302 301 300 299 297 296 294 292 290 288 287 287 286 285 285 285 284 283 280 278 276 275 274 273 273 273 272 270 268 267 266 265 263 262 261 260 258